This demonstration page uses our WeatherBlox Daily Observations layout. Learn more.

Hourly Observations for August 12, 2017

Temp ( °F °C ) Dew Point ( °F °C ) Humidity (%) Winds ( mph kmh ) Pressure ( in mb ) Visibility ( mi km ) Precip ( " mm )
12:15 am 00:15 Cloudy 70 21 70 21 100 100 S 3 6 30 1016 7 11.265408 0 0
12:35 am 00:35 Mostly Cloudy with Mist and Fog 70 21 70 21 100 100 SSE 3 6 29.97 1015 4 6.437376 0 0
12:55 am 00:55 Partly Cloudy 68 20 68 20 100 100 Calm 29.97 1015 10 16.09344 0 0
1:15 am 01:15 Clear 68 20 68 20 100 100 Calm 29.97 1015 10 16.09344 0 0
1:35 am 01:35 Clear 68 20 68 20 100 100 WNW 3 6 29.97 1015 10 16.09344 0 0
1:55 am 01:55 Clear 68 20 68 20 100 100 Calm 29.97 1015 10 16.09344 0 0
2:15 am 02:15 Clear 68 20 68 20 100 100 Calm 29.97 1015 10 16.09344 0 0
2:35 am 02:35 Partly Cloudy 68 20 68 20 100 100 Calm 29.97 1015 10 16.09344 0 0
2:55 am 02:55 Partly Cloudy 68 20 68 20 100 100 Calm 29.97 1015 10 16.09344 0 0
3:15 am 03:15 Partly Cloudy 68 20 68 20 100 100 Calm 29.97 1015 10 16.09344 0 0
3:35 am 03:35 Mostly Cloudy 68 20 68 20 100 100 Calm 29.97 1015 10 16.09344 0 0
3:55 am 03:55 Mostly Cloudy 68 20 68 20 100 100 Calm 29.97 1015 10 16.09344 0 0
4:15 am 04:15 Mostly Cloudy with Light Rain 68 20 68 20 100 100 Calm 29.94 1014 10 16.09344 0 0
4:35 am 04:35 Partly Cloudy with Light Rain 68 20 68 20 100 100 Calm 29.94 1014 10 16.09344 0 0
4:55 am 04:55 Partly Cloudy 68 20 68 20 100 100 Calm 29.97 1015 10 16.09344 0 0
5:15 am 05:15 Partly Cloudy 68 20 68 20 100 100 Calm 29.97 1015 10 16.09344 0 0
5:35 am 05:35 Partly Cloudy 68 20 68 20 100 100 Calm 29.97 1015 10 16.09344 0 0
5:55 am 05:55 Partly Cloudy 68 20 68 20 100 100 Calm 29.97 1015 10 16.09344 0 0
6:15 am 06:15 Partly Cloudy 68 20 68 20 100 100 Calm 29.97 1015 10 16.09344 0 0
6:35 am 06:35 Mostly Cloudy 68 20 68 20 100 100 NE 3 6 29.97 1015 7 11.265408 0 0
6:55 am 06:55 Cloudy with Fog 68 20 68 20 100 100 Calm 29.97 1015 0.25 0.402336 0 0
7:15 am 07:15 Cloudy with Fog 68 20 68 20 100 100 Calm 29.97 1015 0 0 0 0
7:35 am 07:35 Cloudy with Fog 68 20 68 20 100 100 Calm 29.97 1015 0 0 0 0
7:55 am 07:55 Cloudy with Fog 68 20 68 20 100 100 Calm 29.97 1015 0.25 0.402336 0 0
8:15 am 08:15 Cloudy with Fog 68 20 68 20 100 100 Calm 29.97 1015 0.25 0.402336 0 0
8:35 am 08:35 Cloudy with Mist and Fog 70 21 70 21 100 100 Calm 29.97 1015 1.25 2.01168 0 0
8:55 am 08:55 Cloudy 70 21 70 21 100 100 Calm 29.97 1015 10 16.09344 0 0
9:15 am 09:15 Cloudy 70 21 70 21 100 100 Calm 29.97 1015 10 16.09344 0 0
9:35 am 09:35 Cloudy 72 22 72 22 100 100 S 5 7 29.97 1015 7 11.265408 0 0
9:55 am 09:55 Cloudy 72 22 72 22 100 100 SW 3 6 29.97 1015 7 11.265408 0 0
10:15 am 10:15 Cloudy 72 22 72 22 100 100 Calm 29.97 1015 7 11.265408 0 0
10:35 am 10:35 Cloudy 72 22 72 22 100 100 Calm 29.97 1015 10 16.09344 0 0
10:55 am 10:55 Cloudy 73 23 73 23 100 100 Calm 29.97 1015 10 16.09344 0 0
11:15 am 11:15 Cloudy 73 23 73 23 100 100 Calm 29.97 1015 10 16.09344 0 0
11:35 am 11:35 Cloudy 75 24 73 23 94 94 Calm 29.97 1015 10 16.09344 0 0
11:55 am 11:55 Cloudy 77 25 73 23 89 89 Calm 29.94 1014 10 16.09344 0 0
12:15 pm 12:15 Mostly Cloudy 79 26 73 23 84 84 Calm 29.94 1014 10 16.09344 0 0
12:35 pm 12:35 Partly Cloudy 81 27 75 24 84 84 Calm 29.94 1014 10 16.09344 0 0
12:55 pm 12:55 Sunny 81 27 73 23 79 79 Calm 29.94 1014 10 16.09344 0 0
1:15 pm 13:15 Partly Cloudy 82 28 73 23 74 74 Calm 29.94 1014 10 16.09344 0 0
1:35 pm 13:35 Partly Cloudy 82 28 73 23 74 74 S 3 6 29.91 1013 10 16.09344 0 0
1:55 pm 13:55 Partly Cloudy 84 29 73 23 70 70 SE 6 9 29.91 1013 10 16.09344 0 0
2:15 pm 14:15 Partly Cloudy 84 29 73 23 70 70 Calm 29.91 1013 10 16.09344 0 0
2:35 pm 14:35 Mostly Cloudy 86 30 73 23 66 66 SE 6 9 29.88 1012 10 16.09344 0 0
2:55 pm 14:55 Partly Cloudy 84 29 73 23 70 70 S 6 9 29.91 1013 10 16.09344 0 0
3:15 pm 15:15 Sunny 84 29 73 23 70 70 S 6 9 29.88 1012 10 16.09344 0 0
3:35 pm 15:35 Sunny 84 29 75 24 74 74 S 5 7 29.88 1012 10 16.09344 0 0
3:55 pm 15:55 Sunny 84 29 75 24 74 74 SSW 6 9 29.88 1012 10 16.09344 0 0
4:15 pm 16:15 Sunny 86 30 75 24 70 70 SSW 5 7 29.85 1011 10 16.09344 0 0
4:35 pm 16:35 Sunny 86 30 73 23 66 66 S 5 7 29.85 1011 10 16.09344 0 0
4:55 pm 16:55 Sunny 86 30 73 23 66 66 SSW 3 6 29.85 1011 10 16.09344 0 0
5:15 pm 17:15 Partly Cloudy 86 30 73 23 66 66 Calm 29.85 1011 10 16.09344 0 0
5:35 pm 17:35 Partly Cloudy 86 30 73 23 66 66 S 7 11 29.85 1011 10 16.09344 0 0
5:55 pm 17:55 Partly Cloudy 86 30 73 23 66 66 S 6 9 29.85 1011 10 16.09344 0 0
6:15 pm 18:15 Partly Cloudy with Nearby Thunderstorms 84 29 73 23 70 70 S 3 6 29.88 1012 10 16.09344 0 0
6:35 pm 18:35 Cloudy with Nearby Thunderstorms 77 25 70 21 79 79 NNE 14 22 29.88 1012 10 16.09344 0 0
6:55 pm 18:55 Cloudy with Heavy Thunderstorms 73 23 72 22 94 94 N 17 28 29.94 1014 2 3.218688 0.38 9.652
7:15 pm 19:15 Cloudy with Heavy Thunderstorms 72 22 72 22 100 100 Calm 29.91 1013 1 1.609344 0.36 9.144
7:35 pm 19:35 Cloudy with Nearby Thunderstorms 70 21 70 21 100 100 Calm 29.91 1013 2 3.218688 0.48 12.192
7:55 pm 19:55 Cloudy with Light Thunderstorms 72 22 72 22 100 100 NNW 5 7 29.91 1013 10 16.09344 0.5 12.7
8:15 pm 20:15 Cloudy 72 22 72 22 100 100 S 3 6 29.88 1012 7 11.265408 0.03 0.762
8:35 pm 20:35 Cloudy 72 22 72 22 100 100 Calm 29.91 1013 10 16.09344 0.03 0.762
8:55 pm 20:55 Cloudy with Light Rain 72 22 72 22 100 100 Calm 29.91 1013 10 16.09344 0.03 0.762
9:15 pm 21:15 Mostly Cloudy 72 22 72 22 100 100 Calm 29.91 1013 10 16.09344 0 0
9:35 pm 21:35 Mostly Cloudy 72 22 72 22 100 100 Calm 29.91 1013 7 11.265408 0 0
9:55 pm 21:55 Mostly Cloudy with Mist and Fog 70 21 70 21 100 100 Calm 29.91 1013 5 8.04672 0 0
10:15 pm 22:15 Mostly Cloudy with Mist and Fog 70 21 70 21 100 100 Calm 29.94 1014 5 8.04672 0 0
10:35 pm 22:35 Cloudy 70 21 70 21 100 100 Calm 29.94 1014 7 11.265408 0 0
10:55 pm 22:55 Partly Cloudy 70 21 70 21 100 100 Calm 29.91 1013 7 11.265408 0 0
11:15 pm 23:15 Partly Cloudy with Mist and Fog 70 21 70 21 100 100 NW 3 6 29.94 1014 3 4.828032 0 0
11:35 pm 23:35 Mostly Cloudy 70 21 70 21 100 100 NW 3 6 29.94 1014 7 11.265408 0 0
11:55 pm 23:55 Cloudy 70 21 70 21 100 100 Calm 29.94 1014 7 11.265408 0 0

Powered by AerisWeather